Voltar ao catálogo

TITAN 34D TRANSTAGE DEB

AtivoHEO
NORAD 22818·DEBRIS·🇺🇸 United States

Lançado Sep 2, 1988 de Cape Canaveral Space Force Station

Loading…

Próximas Passagens (próximas 24 horas)

TLE

AtualizadoSource: Space-Track

Época: Sep 12, 2026, 21:14 UTC

1 22818U 88077F   26255.88474630  .00000553  00000-0  15332-2 0  9990
2 22818  26.7479 146.1638 6967359 221.8721  56.0900  2.59977364 66481

Acompanhe TITAN 34D TRANSTAGE DEB em tempo real com AllMySat

Download on the App Store